Location: Unspecified
(51.5147°N, 7.4673°E)
Time: 06:23:03
(UTC+01:00)

A-11 Canister half - Pass Details

Date: 22 February 2026
Orbit: 1524 x 1683 km, 47.3° (Epoch: 14 March)

Event Time Altitude Azimuth Distance (km) Brightness Sun altitude
Rises 22:50:11 0° 286° (WNW) 4,678 12.1 -42.4°
Reaches altitude 10° 22:54:06 10° 272° (W) 3,694 11.3 -42.8°
Enters shadow 22:58:30 20° 245° (WSW) 2,984 10.5 -43.2°
